Flag for Vietnam Weather past 2 weeks in Ho Chi Minh, Vietnam

Now
81 °F

Passing clouds.


Feels Like: 88 °F
Forecast: 76 / 88 °F
Wind: 8 mph from Southwest

Location: Ho Chi Minh

Current Time: Jul 25, 2014 at 9:39:39 PM

Latest Report: Jul 25, 2014 at 9:00 PM


Visibility: N/A

Pressure: 29.80 "Hg

Humidity: 94%

Dew point: 79 °F

Location of Ho Chi MinhLocation

Historic Weather in Ho Chi Minh — Graph

°F

Ho Chi Minh temperature yesterday

Maximum temperature yesterday: 90 °F (at 12:30 PM)
Minimum temperature yesterday: 75 °F (at 12:30 AM)
Average temperature yesterday: 79 °F

Past Weeks' High & Low Weather Summary

 TemperatureHumidityPressure
High91 °F (Jul 11, 12:30 PM)100% (Jul 11, 1:30 AM)29.86 "Hg (Jul 11, 1:30 AM)
Low73 °F (Jul 13, 2:30 AM)52% (Jul 11, 3:00 PM)29.62 "Hg (Jul 17, 2:30 PM)
Average81 °F90%29.75 "Hg
* Reported Jul 10 8:00 PM — Jul 25 8:30 PM, Ho Chi Minh, Weather by CustomWeather, © 2014

Note: Actual official high and low records may vary slightly from our data, if they occured in-between our weather recording intervals... More about our weather records

Advertising

Ho Chi Minh weather history for previous 24 hours

 ConditionsComfort  
Time TempWeatherWind HumidityBarometerVisibility
8:30 PM
Jul 25
81 °FPassing clouds.5 mph100%29.80 "HgN/A
8:00 PM81 °FPassing clouds.6 mph100%29.77 "HgN/A
7:30 PM81 °FPassing clouds.7 mph100%29.77 "HgN/A
7:00 PM81 °FPassing clouds.7 mph94%29.74 "HgN/A
6:30 PM81 °FPassing clouds.6 mph94%29.74 "HgN/A
6:00 PM81 °FBroken clouds.8 mph94%29.74 "HgN/A
5:30 PM82 °FBroken clouds.8 mph89%29.71 "HgN/A
5:00 PM82 °FBroken clouds.7 mph89%29.71 "HgN/A
4:30 PM82 °FBroken clouds.6 mph89%29.71 "HgN/A
4:00 PM82 °FLight rain. More clouds than sun.3 mph94%29.71 "HgN/A
3:30 PM79 °FLight rain. More clouds than sun.5 mph100%29.71 "Hg5 mi
3:00 PM79 °FLight rain. Scattered clouds.12 mph89%29.74 "Hg4 mi
2:30 PM86 °FThunderstorms. Scattered clouds.12 mph75%29.74 "Hg5 mi
2:00 PM86 °FScattered clouds.12 mph70%29.74 "Hg5 mi
1:30 PM82 °FRain. Scattered clouds.14 mph89%29.74 "Hg5 mi
1:00 PM90 °FScattered clouds.9 mph63%29.74 "HgN/A
12:30 PM91 °FScattered clouds.12 mph63%29.77 "HgN/A
12:00 PM90 °FScattered clouds.14 mph63%29.77 "HgN/A
11:30 AM90 °FPartly sunny.13 mph63%29.80 "HgN/A
11:00 AM88 °FPartly sunny.12 mph66%29.80 "HgN/A
10:30 AM88 °FScattered clouds.15 mph70%29.80 "HgN/A
10:00 AM88 °FScattered clouds.13 mph79%29.80 "HgN/A
9:30 AM88 °FScattered clouds.16 mph75%29.80 "HgN/A
9:00 AM84 °FScattered clouds.10 mph84%29.80 "HgN/A
8:30 AM84 °FScattered clouds.12 mph89%29.80 "HgN/A
8:00 AM84 °FPassing clouds.8 mph89%29.80 "HgN/A
7:30 AM82 °FPassing clouds.7 mph89%29.80 "HgN/A
7:00 AM79 °FPartly sunny.3 mph100%29.80 "HgN/A
6:30 AM79 °FPartly sunny.1 mph100%29.77 "HgN/A
6:00 AM75 °FScattered clouds.2 mph100%29.77 "HgN/A
5:30 AM75 °FPassing clouds.2 mph100%29.77 "HgN/A
5:00 AM75 °FPassing clouds.3 mph100%29.77 "HgN/A
4:30 AM75 °FPassing clouds.3 mph100%29.77 "HgN/A
4:00 AM75 °FPassing clouds.8 mph100%29.77 "HgN/A
3:30 AM77 °FPassing clouds.7 mph100%29.74 "HgN/A
3:00 AM77 °FPassing clouds.7 mph100%29.74 "HgN/A
2:30 AM77 °FPassing clouds.8 mph100%29.74 "HgN/A
2:00 AM79 °FPassing clouds.9 mph100%29.74 "HgN/A
1:30 AM77 °FPassing clouds.8 mph100%29.74 "HgN/A
1:00 AM75 °FPassing clouds.9 mph100%29.77 "HgN/A
12:30 AM77 °FPassing clouds.7 mph100%29.77 "HgN/A
12:00 AM79 °FPassing clouds.9 mph94%29.77 "HgN/A
11:30 PM
Jul 24
77 °FPassing clouds.10 mph100%29.80 "HgN/A
11:00 PM77 °FPassing clouds.9 mph100%29.80 "HgN/A
10:30 PM79 °FPassing clouds.9 mph100%29.80 "HgN/A
10:00 PM77 °FPassing clouds.8 mph100%29.80 "HgN/A
9:30 PM79 °FPassing clouds.6 mph100%29.80 "HgN/A
9:00 PM79 °FPassing clouds.7 mph100%29.80 "HgN/A
Weather by CustomWeather, © 2014

See weather overviewHow to use our weather pages